GW0319 Weather Reports


time (UTC)temp
F
wind
direction
speed
knots
gust
knots
rain 1hr
in
rain 24hr
in
rain mn
in
humidity
%
barometer
mb
20260503200420 61 194 0.9 2.6 0.00 0.00 0.00 67 1013.0
20260503195918 61 181 0.9 2.6 0.00 0.00 0.00 67 1012.9
20260503195438 62 201 0.9 3.5 0.00 0.00 0.00 66 1013.0
20260503194916 62 229 1.7 4.3 0.00 0.00 0.00 65 1012.9
20260503194420 62 243 1.7 4.3 0.00 0.00 0.00 67 1012.8
20260503193918 61 179 0.9 1.7 0.00 0.00 0.00 69 1012.8
20260503193417 61 34 1.7 5.2 0.00 0.00 0.00 67 1013.0
20260503192916 62 235 2.6 4.3 0.00 0.00 0.00 68 1012.9
20260503192419 62 186 2.6 3.5 0.00 0.00 0.00 68 1012.9
20260503191918 62 214 1.7 3.5 0.00 0.00 0.00 66 1012.9
20260503191417 62 111 0.9 1.7 0.00 0.00 0.00 66 1012.9
20260503190956 62 194 1.7 3.5 0.00 0.00 0.00 66 1012.8
20260503190419 62 218 1.7 4.3 0.00 0.00 0.00 68 1012.8
20260503185939 61 140 2.6 3.5 0.00 0.00 0.00 69 1012.9
20260503185416 61 185 1.7 4.3 0.00 0.00 0.00 68 1013.0
20260503184915 61 166 2.6 2.6 0.00 0.00 0.00 70 1012.8
20260503184420 60 187 1.7 2.6 0.00 0.00 0.00 69 1012.8
20260503183918 61 160 1.7 2.6 0.00 0.00 0.00 68 1012.8
20260503183416 61 208 1.7 2.6 0.00 0.00 0.00 69 1012.9
20260503182936 61 196 1.7 3.5 0.00 0.00 0.00 68 1012.7
20260503182420 61 195 1.7 2.6 0.00 0.00 0.00 68 1012.8
20260503181918 61 150 2.6 3.5 0.00 0.00 0.00 68 1012.8
20260503181437 62 139 1.7 3.5 0.00 0.00 0.00 66 1012.7
20260503180917 62 178 0.9 2.6 0.00 0.00 0.00 67 1012.5
20260503180419 62 169 3.5 4.3 0.00 0.00 0.00 68 1012.5
20260503175918 62 148 0.9 2.6 0.00 0.00 0.00 67 1012.7
20260503175417 62 183 1.7 2.6 0.00 0.00 0.00 67 1012.5
20260503174916 62 213 0.9 2.6 0.00 0.00 0.00 69 1012.6
20260503174420 62 179 2.6 3.5 0.00 0.00 0.00 69 1012.8
20260503173939 62 133 3.5 5.2 0.00 0.00 0.00 70 1012.7
20260503173437 61 135 4.3 7.0 0.00 0.00 0.00 70 1012.8
20260503172936 60 147 1.7 3.5 0.00 0.00 0.00 71 1012.6
20260503172420 60 213 2.6 2.6 0.00 0.00 0.00 73 1012.8
20260503171918 59 131 3.5 4.3 0.00 0.00 0.00 72 1012.5
20260503171437 59 118 1.7 4.3 0.00 0.00 0.00 73 1012.6
20260503170917 58 196 0.9 2.6 0.00 0.00 0.00 74 1012.8
20260503170419 57 295 0.9 3.5 0.00 0.00 0.00 75 1012.6
20260503150917 54 156 2.6 2.6 0.00 0.00 0.00 82 1012.2
20260503150415 54 165 1.7 2.6 0.00 0.00 0.00 82 1012.0
20260503131419 53 170 1.7 2.6 0.00 0.00 0.00 83 1010.8
20260503130918 53 132 0.9 1.7 0.00 0.00 0.00 83 1010.9
20260503130416 53 0 0.0 0.9 0.00 0.00 0.00 83 1010.4
20260503110417 53 167 0.0 1.7 0.00 0.00 0.00 82 1010.8
20260503090417 53 194 0.9 1.7 0.00 0.00 0.00 82 1011.1
20260503081421 53 169 0.0 1.7 0.00 0.00 0.00 82 1011.8
20260503080918 53 156 0.9 1.7 0.00 0.00 0.00 82 1011.8
20260503080417 53 150 0.9 2.6 0.00 0.00 0.00 82 1011.6
20260503072919 53 150 2.6 2.6 0.00 0.00 0.00 81 1011.7
20260503072437 53 169 0.9 2.6 0.00 0.00 0.00 81 1011.6
20260503071916 53 203 1.7 1.7 0.00 0.00 0.00 81 1011.6
20260503071420 53 191 0.0 0.9 0.00 0.00 0.00 82 1011.8
20260503070919 53 216 0.9 2.6 0.00 0.00 0.00 81 1011.4
20260503070459 53 233 0.0 1.7 0.00 0.00 0.00 82 1011.6
20260503054919 54 200 0.9 1.7 0.00 0.00 0.00 81 1012.0
20260503054418 54 193 0.9 2.6 0.00 0.00 0.00 81 1012.0
20260503053917 54 209 2.6 2.6 0.00 0.00 0.00 81 1012.0
20260503053415 54 201 1.7 1.7 0.00 0.00 0.00 81 1012.1
20260503052919 54 185 1.7 2.6 0.00 0.00 0.00 81 1012.1
20260503052418 54 199 2.6 2.6 0.00 0.00 0.00 81 1012.0
20260503051917 54 222 1.7 2.6 0.00 0.00 0.00 81 1012.1
20260503051436 54 182 1.7 2.6 0.00 0.00 0.00 81 1012.1
20260503050919 54 217 1.7 3.5 0.00 0.00 0.00 81 1012.0
20260503050418 54 201 1.7 2.6 0.00 0.00 0.00 81 1012.0
20260503045917 54 219 2.6 2.6 0.00 0.00 0.00 81 1012.0
20260503045416 54 216 1.7 3.5 0.00 0.00 0.00 81 1012.1
20260503044919 54 186 1.7 1.7 0.00 0.00 0.00 81 1011.9
20260503044419 54 214 1.7 2.6 0.00 0.00 0.00 81 1012.1
20260503043917 54 198 1.7 2.6 0.00 0.00 0.00 81 1012.2
20260503043416 54 212 1.7 2.6 0.00 0.00 0.00 81 1011.9
20260503042919 54 189 1.7 2.6 0.00 0.00 0.00 80 1012.0
20260503042419 54 0 0.0 1.7 0.00 0.00 0.00 80 1012.1
20260503041938 54 206 1.7 2.6 0.00 0.00 0.00 80 1012.0
20260503041416 54 208 0.9 1.7 0.00 0.00 0.00 80 1012.1
20260503040920 54 176 1.7 1.7 0.00 0.00 0.00 80 1011.7
20260503040419 54 203 1.7 2.6 0.00 0.00 0.00 80 1012.0
20260503035917 54 207 1.7 2.6 0.00 0.00 0.00 80 1011.7
20260503035437 54 213 2.6 2.6 0.00 0.00 0.00 80 1011.7
20260503034915 54 215 2.6 2.6 0.00 0.00 0.00 80 1011.7
20260503034419 54 191 0.9 1.7 0.00 0.00 0.00 80 1011.4
20260503033918 54 217 1.7 2.6 0.00 0.00 0.00 80 1011.5
20260503033416 54 208 1.7 3.5 0.00 0.00 0.00 80 1011.4
20260503032920 54 134 1.7 3.5 0.00 0.00 0.00 80 1011.3
20260503032439 54 187 2.6 2.6 0.00 0.00 0.00 80 1011.3
20260503031917 54 193 2.6 4.3 0.00 0.00 0.00 80 1011.4
20260503031416 54 184 1.7 2.6 0.00 0.00 0.00 79 1011.2
20260503030920 54 208 2.6 3.5 0.00 0.00 0.00 79 1011.3
20260503030418 54 214 1.7 2.6 0.00 0.00 0.00 79 1011.2
20260503025918 54 205 1.7 2.6 0.00 0.00 0.00 79 1011.2
20260503025416 54 200 1.7 2.6 0.00 0.00 0.00 79 1011.2
20260503024920 54 211 1.7 2.6 0.00 0.00 0.00 79 1011.3
20260503024439 55 185 1.7 2.6 0.00 0.00 0.00 79 1011.1
20260503023917 55 171 1.7 2.6 0.00 0.00 0.00 79 1011.1
20260503023416 55 194 1.7 1.7 0.00 0.00 0.00 78 1011.1
20260503022920 55 184 1.7 3.5 0.00 0.00 0.00 78 1011.2
20260503022439 55 180 2.6 3.5 0.00 0.00 0.00 77 1011.3
20260503021917 55 197 2.6 3.5 0.00 0.00 0.00 77 1011.0
20260503021416 55 182 3.5 3.5 0.00 0.00 0.00 77 1011.1
20260503020919 55 195 1.7 2.6 0.00 0.00 0.00 77 1011.3
20260503020419 55 202 3.5 5.2 0.00 0.00 0.00 77 1011.2
20260503015917 55 198 1.7 1.7 0.00 0.00 0.00 77 1011.2
20260503015417 55 170 1.7 3.5 0.00 0.00 0.00 77 1011.1
20260503014920 55 205 3.5 4.3 0.00 0.00 0.00 76 1011.3
20260503014418 56 148 0.9 2.6 0.00 0.00 0.00 77 1011.2
20260503013918 56 202 1.7 2.6 0.00 0.00 0.00 76 1011.4
20260503013416 56 183 2.6 3.5 0.00 0.00 0.00 75 1011.6
20260503012920 56 204 1.7 3.5 0.00 0.00 0.00 75 1011.4
20260503012419 56 224 1.7 2.6 0.00 0.00 0.00 75 1011.5
20260503011938 56 300 1.7 1.7 0.00 0.00 0.00 75 1011.4
20260503011416 56 203 1.7 2.6 0.00 0.00 0.00 76 1011.7
20260503010920 56 169 2.6 2.6 0.00 0.00 0.00 75 1011.5
20260503010419 56 138 2.6 3.5 0.00 0.00 0.00 74 1011.4
20260503005918 56 204 2.6 3.5 0.00 0.00 0.00 74 1011.6
20260503005416 57 239 0.9 1.7 0.00 0.00 0.00 75 1011.5
20260503004920 57 231 2.6 3.5 0.00 0.00 0.00 73 1011.6
20260503004419 57 139 0.9 2.6 0.00 0.00 0.00 73 1011.6
20260503003917 57 110 1.7 3.5 0.00 0.00 0.00 73 1011.5
20260503003416 57 241 1.7 4.3 0.00 0.00 0.00 72 1011.5
20260503002920 57 136 0.9 1.7 0.00 0.00 0.00 72 1011.5
20260503002419 58 266 0.9 2.6 0.00 0.00 0.00 72 1011.6
20260503001917 58 218 1.7 5.2 0.00 0.00 0.00 71 1011.3
20260503001416 58 214 1.7 3.5 0.00 0.00 0.00 71 1011.6
20260503000920 58 197 1.7 3.5 0.00 0.00 0.00 70 1011.7
20260503000419 59 188 1.7 3.5 0.00 0.00 0.00 69 1011.6
20260502235918 59 295 0.9 3.5 0.00 0.00 0.00 70 1011.6
20260502235416 59 203 1.7 2.6 0.00 0.00 0.00 69 1011.5
20260502234920 59 215 2.6 4.3 0.00 0.00 0.00 68 1011.5
20260502234419 60 234 1.7 3.5 0.00 0.00 0.00 67 1011.9
20260502233918 60 116 1.7 3.5 0.00 0.00 0.00 69 1011.7
20260502233437 60 199 2.6 3.5 0.00 0.00 0.00 68 1011.6
20260502232920 61 246 1.7 3.5 0.00 0.00 0.00 67 1011.8
20260502232419 61 200 2.6 3.5 0.00 0.00 0.00 66 1011.8
20260502231938 62 132 1.7 2.6 0.00 0.00 0.00 66 1011.9
20260502231416 62 217 2.6 3.5 0.00 0.00 0.00 64 1011.7
20260502230920 63 65 1.7 2.6 0.00 0.00 0.00 64 1012.0
20260502230418 63 209 0.9 1.7 0.00 0.00 0.00 64 1011.9
20260502225917 63 227 1.7 2.6 0.00 0.00 0.00 62 1012.1
20260502225417 63 197 0.9 1.7 0.00 0.00 0.00 64 1012.3
20260502224940 63 136 1.7 1.7 0.00 0.00 0.00 64 1012.4
20260502224439 63 213 2.6 4.3 0.00 0.00 0.00 62 1012.2
20260502223937 63 222 1.7 4.3 0.00 0.00 0.00 63 1012.5
20260502223416 63 160 2.6 4.3 0.00 0.00 0.00 62 1012.5
20260502222940 64 225 3.5 4.3 0.00 0.00 0.00 63 1012.6
20260502222418 64 195 1.7 4.3 0.00 0.00 0.00 65 1012.6
20260502221917 63 213 0.9 2.6 0.00 0.00 0.00 64 1012.6
20260502221416 64 67 2.6 6.1 0.00 0.00 0.00 63 1012.8
20260502220919 64 244 1.7 3.5 0.00 0.00 0.00 63 1012.8
20260502220419 64 189 1.7 3.5 0.00 0.00 0.00 64 1012.7
20260502215917 63 205 1.7 3.5 0.00 0.00 0.00 67 1012.7
20260502215415 62 189 1.7 3.5 0.00 0.00 0.00 67 1012.6
20260502214920 62 211 1.7 2.6 0.00 0.00 0.00 68 1012.7
20260502214459 62 202 2.6 3.5 0.00 0.00 0.00 68 1012.8
20260502213917 62 207 4.3 5.2 0.00 0.00 0.00 70 1012.9
20260502213417 61 170 2.6 2.6 0.00 0.00 0.00 71 1012.8
20260502212920 61 198 0.9 2.6 0.00 0.00 0.00 70 1012.8
20260502212418 61 219 2.6 4.3 0.00 0.00 0.00 71 1013.0
20260502211917 61 208 2.6 3.5 0.00 0.00 0.00 72 1012.8
20260502211416 61 206 3.5 4.3 0.00 0.00 0.00 71 1012.9
20260502210920 61 162 1.7 3.5 0.00 0.00 0.00 70 1013.2
20260502210419 61 210 1.7 3.5 0.00 0.00 0.00 71 1013.1
20260502205938 61 220 3.5 7.0 0.00 0.00 0.00 70 1013.2
20260502205416 61 192 1.7 3.5 0.00 0.00 0.00 72 1013.2
20260502205002 61 267 1.7 2.6 0.00 0.00 0.00 72 1013.0
20260502204419 61 200 2.6 3.5 0.00 0.00 0.00 70 1013.0
20260502203918 62 222 1.7 2.6 0.00 0.00 0.00 70 1013.1
20260502203417 62 299 1.7 3.5 0.00 0.00 0.00 70 1013.1
20260502202919 62 222 1.7 4.3 0.00 0.00 0.00 71 1013.3
20260502202419 62 196 1.7 1.7 0.00 0.00 0.00 71 1013.4
20260502201917 62 255 1.7 3.5 0.00 0.00 0.00 70 1013.3
20260502201416 62 207 1.7 3.5 0.00 0.00 0.00 70 1013.1
20260502200920 62 202 0.9 1.7 0.00 0.00 0.00 70 1013.4